| time (UTC) | temp F | wind direction | speed MPH | gust MPH | rain 1hr in | rain 24hr in | rain mn in | humidity % | barometer mb |
| 20260906120004 | 95 | 60 | 3.0 | 9.0 | 0.00 | 0.00 | 0.00 | 16 | 1027.5 |
| 20260906115504 | 94 | 69 | 4.0 | 13.0 | 0.00 | 0.00 | 0.00 | 15 | 1027.7 |
| 20260906115003 | 94 | 90 | 5.0 | 8.0 | 0.00 | 0.00 | 0.00 | 15 | 1027.6 |
| 20260906114504 | 94 | 50 | 4.0 | 9.0 | 0.00 | 0.00 | 0.00 | 16 | 1027.6 |
| 20260906114004 | 94 | 54 | 4.0 | 9.0 | 0.00 | 0.00 | 0.00 | 17 | 1027.5 |
| 20260906113004 | 93 | 46 | 5.0 | 9.0 | 0.00 | 0.00 | 0.00 | 17 | 1027.7 |
| 20260906112504 | 93 | 37 | 6.0 | 10.0 | 0.00 | 0.00 | 0.00 | 17 | 1027.8 |
| 20260906112004 | 93 | 136 | 3.0 | 8.0 | 0.00 | 0.00 | 0.00 | 17 | 1027.8 |
| 20260906111504 | 93 | 29 | 2.0 | 8.0 | 0.00 | 0.00 | 0.00 | 17 | 1028.0 |
| 20260906111004 | 92 | 57 | 2.0 | 7.0 | 0.00 | 0.00 | 0.00 | 19 | 1028.1 |
| 20260906110504 | 92 | 64 | 4.0 | 10.0 | 0.00 | 0.00 | 0.00 | 17 | 1028.2 |
| 20260906110004 | 92 | 72 | 3.0 | 8.0 | 0.00 | 0.00 | 0.00 | 19 | 1028.0 |
| 20260906105503 | 92 | 104 | 1.0 | 5.0 | 0.00 | 0.00 | 0.00 | 20 | 1028.3 |
| 20260906104504 | 94 | 55 | 2.0 | 5.0 | 0.00 | 0.00 | 0.00 | 20 | 1028.0 |
| 20260906103503 | 92 | 58 | 1.0 | 3.0 | 0.00 | 0.00 | 0.00 | 23 | 1028.2 |
| 20260906103003 | 92 | 297 | 1.0 | 3.0 | 0.00 | 0.00 | 0.00 | 24 | 1028.1 |
| 20260906102505 | 90 | 63 | 1.0 | 8.0 | 0.00 | 0.00 | 0.00 | 22 | 1028.2 |
| 20260906102004 | 92 | 48 | 6.0 | 10.0 | 0.00 | 0.00 | 0.00 | 24 | 1028.2 |
| 20260906101504 | 91 | 22 | 2.0 | 6.0 | 0.00 | 0.00 | 0.00 | 25 | 1028.2 |
| 20260906100504 | 90 | 85 | 2.0 | 8.0 | 0.00 | 0.00 | 0.00 | 28 | 1028.4 |
| 20260906100004 | 89 | 57 | 4.0 | 7.0 | 0.00 | 0.00 | 0.00 | 28 | 1028.5 |
| 20260906095504 | 88 | 58 | 3.0 | 7.0 | 0.00 | 0.00 | 0.00 | 28 | 1028.5 |
| 20260906095003 | 88 | 33 | 2.0 | 8.0 | 0.00 | 0.00 | 0.00 | 29 | 1028.7 |
| 20260906094504 | 88 | 56 | 2.0 | 6.0 | 0.00 | 0.00 | 0.00 | 30 | 1028.6 |
| 20260906094003 | 88 | 48 | 3.0 | 6.0 | 0.00 | 0.00 | 0.00 | 32 | 1028.8 |
| 20260906093004 | 87 | 60 | 2.0 | 5.0 | 0.00 | 0.00 | 0.00 | 32 | 1028.6 |
| 20260906092503 | 86 | 55 | 3.0 | 7.0 | 0.00 | 0.00 | 0.00 | 31 | 1028.6 |
| 20260906092004 | 85 | 49 | 3.0 | 7.0 | 0.00 | 0.00 | 0.00 | 32 | 1028.8 |
| 20260906090504 | 84 | 51 | 2.0 | 5.0 | 0.00 | 0.00 | 0.00 | 33 | 1028.6 |
| 20260906090004 | 83 | 63 | 1.0 | 5.0 | 0.00 | 0.00 | 0.00 | 33 | 1028.9 |
| 20260906085503 | 84 | 52 | 2.0 | 3.0 | 0.00 | 0.00 | 0.00 | 33 | 1028.7 |
| 20260906085004 | 84 | 95 | 2.0 | 3.0 | 0.00 | 0.00 | 0.00 | 33 | 1028.7 |
| 20260906084504 | 84 | 67 | 1.0 | 3.0 | 0.00 | 0.00 | 0.00 | 33 | 1028.8 |
| 20260906084003 | 83 | 56 | 1.0 | 5.0 | 0.00 | 0.00 | 0.00 | 33 | 1028.5 |
| 20260906083504 | 83 | 71 | 1.0 | 3.0 | 0.00 | 0.00 | 0.00 | 33 | 1028.5 |
| 20260906083004 | 83 | 63 | 2.0 | 5.0 | 0.00 | 0.00 | 0.00 | 34 | 1028.5 |
| 20260906082504 | 82 | 66 | 1.0 | 3.0 | 0.00 | 0.00 | 0.00 | 33 | 1028.4 |
| 20260906082003 | 82 | 43 | 1.0 | 3.0 | 0.00 | 0.00 | 0.00 | 33 | 1028.5 |
| 20260906081504 | 82 | 54 | 0.0 | 3.0 | 0.00 | 0.00 | 0.00 | 33 | 1028.6 |
| 20260906080503 | 81 | 234 | 0.0 | 2.0 | 0.00 | 0.00 | 0.00 | 33 | 1028.4 |
| 20260906080004 | 80 | 188 | 0.0 | 3.0 | 0.00 | 0.00 | 0.00 | 34 | 1028.5 |
| 20260906075004 | 80 | 153 | 0.0 | 1.0 | 0.00 | 0.00 | 0.00 | 33 | 1028.3 |
| 20260906074504 | 79 | 227 | 1.0 | 2.0 | 0.00 | 0.00 | 0.00 | 35 | 1028.3 |
| 20260906073503 | 78 | 231 | 1.0 | 2.0 | 0.00 | 0.00 | 0.00 | 35 | 1028.3 |
| 20260906072503 | 76 | 215 | 1.0 | 2.0 | 0.00 | 0.00 | 0.00 | 37 | 1028.4 |
| 20260906072004 | 76 | 203 | 1.0 | 1.0 | 0.00 | 0.00 | 0.00 | 37 | 1028.4 |
| 20260906071504 | 75 | 203 | 0.0 | 0.0 | 0.00 | 0.00 | 0.00 | 38 | 1028.5 |
| 20260906071004 | 74 | 203 | 1.0 | 2.0 | 0.00 | 0.00 | 0.00 | 39 | 1028.5 |
| 20260906070504 | 76 | 203 | 0.0 | 0.0 | 0.00 | 0.00 | 0.00 | 37 | 1028.4 |
| 20260906070004 | 76 | 203 | 0.0 | 0.0 | 0.00 | 0.00 | 0.00 | 36 | 1028.4 |
| 20260906065504 | 76 | 203 | 0.0 | 0.0 | 0.00 | 0.00 | 0.00 | 36 | 1028.3 |
| 20260906065003 | 75 | 203 | 0.0 | 0.0 | 0.00 | 0.00 | 0.00 | 36 | 1028.3 |
| 20260906063004 | 70 | 203 | 0.0 | 1.0 | 0.00 | 0.00 | 0.00 | 42 | 1028.5 |
| 20260906062004 | 69 | 203 | 0.0 | 0.0 | 0.00 | 0.00 | 0.00 | 42 | 1028.7 |
| 20260906061504 | 69 | 203 | 0.0 | 0.0 | 0.00 | 0.00 | 0.00 | 43 | 1028.5 |
| 20260906061004 | 69 | 203 | 0.0 | 0.0 | 0.00 | 0.00 | 0.00 | 42 | 1028.6 |
| 20260906060504 | 68 | 203 | 0.0 | 0.0 | 0.00 | 0.00 | 0.00 | 43 | 1028.6 |
| 20260906060004 | 67 | 203 | 0.0 | 0.0 | 0.00 | 0.00 | 0.00 | 44 | 1028.6 |
| 20260906054504 | 66 | 202 | 0.0 | 1.0 | 0.00 | 0.00 | 0.00 | 44 | 1028.6 |
| 20260906054003 | 66 | 202 | 0.0 | 0.0 | 0.00 | 0.00 | 0.00 | 45 | 1028.4 |
| 20260906053504 | 66 | 202 | 0.0 | 0.0 | 0.00 | 0.00 | 0.00 | 44 | 1028.4 |
| 20260906053004 | 66 | 202 | 0.0 | 0.0 | 0.00 | 0.00 | 0.00 | 44 | 1028.3 |
| 20260906052503 | 67 | 202 | 0.0 | 0.0 | 0.00 | 0.00 | 0.00 | 43 | 1028.1 |
| 20260906052003 | 67 | 202 | 0.0 | 0.0 | 0.00 | 0.00 | 0.00 | 43 | 1027.9 |
| 20260906051504 | 67 | 202 | 0.0 | 0.0 | 0.00 | 0.00 | 0.00 | 42 | 1027.9 |
| 20260906051004 | 67 | 202 | 0.0 | 2.0 | 0.00 | 0.00 | 0.00 | 42 | 1027.7 |
| 20260906050503 | 67 | 202 | 1.0 | 2.0 | 0.00 | 0.00 | 0.00 | 41 | 1027.7 |
| 20260906050004 | 68 | 205 | 0.0 | 0.0 | 0.00 | 0.00 | 0.00 | 41 | 1027.6 |
| 20260906045503 | 68 | 206 | 0.0 | 0.0 | 0.00 | 0.00 | 0.00 | 42 | 1027.6 |
| 20260906044004 | 67 | 206 | 1.0 | 1.0 | 0.00 | 0.00 | 0.00 | 41 | 1027.7 |
| 20260906043504 | 67 | 205 | 0.0 | 1.0 | 0.00 | 0.00 | 0.00 | 41 | 1027.7 |
| 20260906043003 | 68 | 205 | 0.0 | 1.0 | 0.00 | 0.00 | 0.00 | 41 | 1027.7 |
| 20260906042504 | 68 | 205 | 0.0 | 1.0 | 0.00 | 0.00 | 0.00 | 42 | 1027.5 |
| 20260906042003 | 68 | 205 | 0.0 | 1.0 | 0.00 | 0.00 | 0.00 | 41 | 1027.6 |
| 20260906041504 | 68 | 205 | 0.0 | 0.0 | 0.00 | 0.00 | 0.00 | 41 | 1027.6 |
| 20260906041004 | 68 | 205 | 0.0 | 0.0 | 0.00 | 0.00 | 0.00 | 41 | 1027.7 |
| 20260906040503 | 68 | 205 | 0.0 | 0.0 | 0.00 | 0.00 | 0.00 | 41 | 1027.5 |
| 20260906040003 | 68 | 205 | 0.0 | 0.0 | 0.00 | 0.00 | 0.00 | 41 | 1027.6 |
| 20260906035503 | 68 | 206 | 0.0 | 0.0 | 0.00 | 0.00 | 0.00 | 41 | 1027.8 |
| 20260906035003 | 68 | 205 | 0.0 | 0.0 | 0.00 | 0.00 | 0.00 | 40 | 1027.6 |
| 20260906034504 | 68 | 205 | 1.0 | 1.0 | 0.00 | 0.00 | 0.00 | 40 | 1027.4 |
| 20260906034004 | 68 | 206 | 0.0 | 1.0 | 0.00 | 0.00 | 0.00 | 40 | 1027.2 |
| 20260906033004 | 69 | 205 | 0.0 | 1.0 | 0.00 | 0.00 | 0.00 | 41 | 1027.3 |
| 20260906032504 | 69 | 205 | 0.0 | 1.0 | 0.00 | 0.00 | 0.00 | 40 | 1027.5 |
| 20260906032003 | 68 | 206 | 1.0 | 2.0 | 0.00 | 0.00 | 0.00 | 39 | 1027.4 |
| 20260906031504 | 68 | 205 | 0.0 | 0.0 | 0.00 | 0.00 | 0.00 | 40 | 1027.5 |
| 20260906031004 | 68 | 205 | 0.0 | 0.0 | 0.00 | 0.00 | 0.00 | 40 | 1027.4 |
| 20260906030504 | 68 | 205 | 0.0 | 1.0 | 0.00 | 0.00 | 0.00 | 40 | 1027.3 |
| 20260906030005 | 69 | 206 | 0.0 | 0.0 | 0.00 | 0.00 | 0.00 | 39 | 1027.5 |
| 20260906025004 | 69 | 206 | 0.0 | 0.0 | 0.00 | 0.00 | 0.00 | 39 | 1027.4 |
| 20260906024504 | 70 | 206 | 0.0 | 1.0 | 0.00 | 0.00 | 0.00 | 39 | 1027.3 |
| 20260906024003 | 70 | 206 | 0.0 | 2.0 | 0.00 | 0.00 | 0.00 | 38 | 1027.6 |
| 20260906023504 | 70 | 194 | 0.0 | 2.0 | 0.00 | 0.00 | 0.00 | 38 | 1027.5 |
| 20260906023003 | 70 | 187 | 1.0 | 2.0 | 0.00 | 0.00 | 0.00 | 38 | 1027.6 |
| 20260906022504 | 69 | 187 | 1.0 | 2.0 | 0.00 | 0.00 | 0.00 | 38 | 1027.6 |
| 20260906022004 | 70 | 186 | 0.0 | 0.0 | 0.00 | 0.00 | 0.00 | 38 | 1027.6 |
| 20260906021504 | 70 | 186 | 0.0 | 2.0 | 0.00 | 0.00 | 0.00 | 38 | 1027.6 |
| 20260906021003 | 70 | 186 | 0.0 | 1.0 | 0.00 | 0.00 | 0.00 | 38 | 1027.6 |
| 20260906020504 | 70 | 186 | 0.0 | 0.0 | 0.00 | 0.00 | 0.00 | 38 | 1027.6 |
| 20260906020004 | 70 | 186 | 0.0 | 0.0 | 0.00 | 0.00 | 0.00 | 38 | 1027.8 |
| 20260906015503 | 70 | 186 | 0.0 | 0.0 | 0.00 | 0.00 | 0.00 | 38 | 1027.7 |
| 20260906014504 | 71 | 186 | 1.0 | 2.0 | 0.00 | 0.00 | 0.00 | 37 | 1027.7 |
| 20260906014004 | 71 | 186 | 0.0 | 1.0 | 0.00 | 0.00 | 0.00 | 37 | 1027.7 |
| 20260906013504 | 71 | 186 | 1.0 | 1.0 | 0.00 | 0.00 | 0.00 | 36 | 1027.9 |
| 20260906013004 | 72 | 186 | 0.0 | 1.0 | 0.00 | 0.00 | 0.00 | 36 | 1027.6 |
| 20260906012504 | 72 | 186 | 1.0 | 2.0 | 0.00 | 0.00 | 0.00 | 36 | 1027.8 |
| 20260906012004 | 71 | 186 | 1.0 | 2.0 | 0.00 | 0.00 | 0.00 | 36 | 1027.9 |
| 20260906011503 | 72 | 185 | 0.0 | 0.0 | 0.00 | 0.00 | 0.00 | 38 | 1027.7 |
| 20260906011004 | 71 | 185 | 0.0 | 1.0 | 0.00 | 0.00 | 0.00 | 37 | 1027.8 |
| 20260906010504 | 71 | 185 | 0.0 | 1.0 | 0.00 | 0.00 | 0.00 | 37 | 1028.0 |
| 20260906010003 | 72 | 185 | 0.0 | 1.0 | 0.00 | 0.00 | 0.00 | 36 | 1027.8 |
| 20260906005504 | 72 | 185 | 1.0 | 1.0 | 0.00 | 0.00 | 0.00 | 37 | 1027.9 |
| 20260906005004 | 72 | 185 | 1.0 | 1.0 | 0.00 | 0.00 | 0.00 | 37 | 1027.9 |
| 20260906004504 | 71 | 185 | 0.0 | 1.0 | 0.00 | 0.00 | 0.00 | 38 | 1027.8 |
| 20260906004004 | 71 | 185 | 1.0 | 1.0 | 0.00 | 0.00 | 0.00 | 37 | 1028.1 |
| 20260906003503 | 71 | 185 | 0.0 | 1.0 | 0.00 | 0.00 | 0.00 | 37 | 1027.8 |
| 20260906003005 | 72 | 185 | 0.0 | 1.0 | 0.00 | 0.00 | 0.00 | 37 | 1028.0 |
| 20260906002504 | 72 | 185 | 0.0 | 1.0 | 0.00 | 0.00 | 0.00 | 37 | 1027.8 |
| 20260906001004 | 72 | 185 | 1.0 | 1.0 | 0.00 | 0.00 | 0.00 | 37 | 1028.0 |
| 20260906000504 | 72 | 185 | 1.0 | 1.0 | 0.00 | 0.00 | 0.00 | 38 | 1028.1 |
| 20260906000003 | 72 | 185 | 0.0 | 0.0 | 0.00 | 0.00 | 0.00 | 38 | 1028.0 |
| 20260905235504 | 72 | 185 | 0.0 | 0.0 | 0.00 | 0.00 | 0.00 | 38 | 1028.1 |
| 20260905235004 | 71 | 185 | 0.0 | 0.0 | 0.00 | 0.00 | 0.00 | 39 | 1028.0 |
| 20260905234504 | 72 | 185 | 0.0 | 0.0 | 0.00 | 0.00 | 0.00 | 38 | 1028.2 |
| 20260905234004 | 72 | 185 | 0.0 | 0.0 | 0.00 | 0.00 | 0.00 | 38 | 1028.3 |
| 20260905233504 | 72 | 185 | 0.0 | 1.0 | 0.00 | 0.00 | 0.00 | 38 | 1028.1 |
| 20260905233004 | 73 | 185 | 0.0 | 0.0 | 0.00 | 0.00 | 0.00 | 38 | 1028.4 |
| 20260905232005 | 73 | 185 | 1.0 | 1.0 | 0.00 | 0.00 | 0.00 | 38 | 1028.3 |
| 20260905231004 | 73 | 184 | 0.0 | 0.0 | 0.00 | 0.00 | 0.00 | 38 | 1028.4 |
| 20260905230503 | 73 | 185 | 0.0 | 0.0 | 0.00 | 0.00 | 0.00 | 38 | 1028.4 |
| 20260905230003 | 73 | 185 | 0.0 | 0.0 | 0.00 | 0.00 | 0.00 | 38 | 1028.3 |
| 20260905225504 | 73 | 185 | 0.0 | 0.0 | 0.00 | 0.00 | 0.00 | 37 | 1028.2 |
| 20260905225004 | 73 | 184 | 0.0 | 0.0 | 0.00 | 0.00 | 0.00 | 38 | 1028.4 |
| 20260905224504 | 73 | 184 | 0.0 | 1.0 | 0.00 | 0.00 | 0.00 | 38 | 1028.4 |
| 20260905223503 | 74 | 184 | 0.0 | 1.0 | 0.00 | 0.00 | 0.00 | 38 | 1028.3 |
| 20260905222503 | 74 | 184 | 1.0 | 1.0 | 0.00 | 0.00 | 0.00 | 38 | 1028.1 |
| 20260905222004 | 74 | 184 | 0.0 | 0.0 | 0.00 | 0.00 | 0.00 | 38 | 1028.2 |
| 20260905221004 | 75 | 184 | 0.0 | 1.0 | 0.00 | 0.00 | 0.00 | 38 | 1028.2 |
| 20260905220504 | 75 | 184 | 0.0 | 1.0 | 0.00 | 0.00 | 0.00 | 38 | 1028.3 |
| 20260905220004 | 75 | 184 | 0.0 | 1.0 | 0.00 | 0.00 | 0.00 | 38 | 1028.2 |
| 20260905215504 | 75 | 184 | 0.0 | 0.0 | 0.00 | 0.00 | 0.00 | 38 | 1028.2 |
| 20260905215003 | 75 | 184 | 0.0 | 0.0 | 0.00 | 0.00 | 0.00 | 39 | 1028.2 |
| 20260905214503 | 75 | 184 | 0.0 | 1.0 | 0.00 | 0.00 | 0.00 | 38 | 1028.2 |
| 20260905214004 | 75 | 184 | 0.0 | 1.0 | 0.00 | 0.00 | 0.00 | 38 | 1028.3 |
| 20260905213503 | 75 | 183 | 0.0 | 0.0 | 0.00 | 0.00 | 0.00 | 38 | 1028.5 |
| 20260905213003 | 76 | 184 | 0.0 | 1.0 | 0.00 | 0.00 | 0.00 | 37 | 1028.3 |
| 20260905212004 | 76 | 183 | 0.0 | 0.0 | 0.00 | 0.00 | 0.00 | 37 | 1028.2 |
| 20260905211504 | 77 | 183 | 0.0 | 0.0 | 0.00 | 0.00 | 0.00 | 37 | 1028.3 |
| 20260905211003 | 77 | 184 | 0.0 | 1.0 | 0.00 | 0.00 | 0.00 | 36 | 1028.4 |
| 20260905210503 | 77 | 184 | 0.0 | 2.0 | 0.00 | 0.00 | 0.00 | 35 | 1028.4 |
| 20260905205004 | 77 | 179 | 0.0 | 2.0 | 0.00 | 0.00 | 0.00 | 38 | 1028.7 |
| 20260905204503 | 78 | 117 | 0.0 | 1.0 | 0.00 | 0.00 | 0.00 | 38 | 1028.7 |
| 20260905204004 | 78 | 40 | 0.0 | 1.0 | 0.00 | 0.00 | 0.00 | 38 | 1028.7 |
| 20260905203505 | 78 | 40 | 1.0 | 2.0 | 0.00 | 0.00 | 0.00 | 38 | 1028.7 |
| 20260905203004 | 78 | 40 | 0.0 | 1.0 | 0.00 | 0.00 | 0.00 | 37 | 1029.0 |
| 20260905202003 | 78 | 40 | 1.0 | 2.0 | 0.00 | 0.00 | 0.00 | 38 | 1029.1 |
| 20260905201504 | 78 | 41 | 1.0 | 2.0 | 0.00 | 0.00 | 0.00 | 38 | 1028.9 |
| 20260905200504 | 79 | 41 | 0.0 | 1.0 | 0.00 | 0.00 | 0.00 | 37 | 1029.0 |
| 20260905200004 | 79 | 40 | 0.0 | 1.0 | 0.00 | 0.00 | 0.00 | 37 | 1029.0 |
| 20260905195504 | 80 | 41 | 0.0 | 0.0 | 0.00 | 0.00 | 0.00 | 37 | 1029.0 |
| 20260905195004 | 80 | 40 | 0.0 | 1.0 | 0.00 | 0.00 | 0.00 | 36 | 1029.0 |
| 20260905194504 | 80 | 41 | 0.0 | 0.0 | 0.00 | 0.00 | 0.00 | 32 | 1029.0 |
| 20260905194004 | 80 | 41 | 0.0 | 0.0 | 0.00 | 0.00 | 0.00 | 32 | 1028.9 |
| 20260905193504 | 81 | 41 | 0.0 | 0.0 | 0.00 | 0.00 | 0.00 | 34 | 1028.9 |
| 20260905193004 | 81 | 41 | 0.0 | 0.0 | 0.00 | 0.00 | 0.00 | 35 | 1029.0 |
| 20260905192504 | 82 | 41 | 0.0 | 0.0 | 0.00 | 0.00 | 0.00 | 34 | 1028.8 |
| 20260905192004 | 82 | 41 | 0.0 | 0.0 | 0.00 | 0.00 | 0.00 | 34 | 1028.9 |
| 20260905191504 | 82 | 41 | 0.0 | 1.0 | 0.00 | 0.00 | 0.00 | 31 | 1028.6 |
| 20260905190504 | 83 | 73 | 0.0 | 0.0 | 0.00 | 0.00 | 0.00 | 31 | 1028.7 |
| 20260905190004 | 83 | 73 | 0.0 | 0.0 | 0.00 | 0.00 | 0.00 | 31 | 1028.6 |
| 20260905185504 | 84 | 73 | 0.0 | 0.0 | 0.00 | 0.00 | 0.00 | 30 | 1028.6 |
| 20260905185004 | 85 | 73 | 0.0 | 1.0 | 0.00 | 0.00 | 0.00 | 30 | 1028.4 |
| 20260905184503 | 85 | 73 | 1.0 | 3.0 | 0.00 | 0.00 | 0.00 | 29 | 1028.5 |
| 20260905184004 | 85 | 60 | 0.0 | 2.0 | 0.00 | 0.00 | 0.00 | 30 | 1028.4 |
| 20260905183504 | 86 | 59 | 1.0 | 3.0 | 0.00 | 0.00 | 0.00 | 30 | 1028.6 |
| 20260905183004 | 86 | 53 | 1.0 | 3.0 | 0.00 | 0.00 | 0.00 | 30 | 1028.4 |
| 20260905182504 | 86 | 28 | 2.0 | 3.0 | 0.00 | 0.00 | 0.00 | 31 | 1028.3 |
| 20260905181503 | 87 | 41 | 1.0 | 2.0 | 0.00 | 0.00 | 0.00 | 32 | 1028.3 |
| 20260905181004 | 88 | 44 | 2.0 | 2.0 | 0.00 | 0.00 | 0.00 | 31 | 1028.3 |
| 20260905180004 | 87 | 290 | 1.0 | 2.0 | 0.00 | 0.00 | 0.00 | 34 | 1028.1 |
| 20260905175004 | 88 | 289 | 0.0 | 0.0 | 0.00 | 0.00 | 0.00 | 34 | 1028.1 |
| 20260905174504 | 89 | 289 | 0.0 | 0.0 | 0.00 | 0.00 | 0.00 | 34 | 1028.1 |
| 20260905174005 | 89 | 289 | 1.0 | 2.0 | 0.00 | 0.00 | 0.00 | 33 | 1028.1 |
| 20260905173503 | 89 | 271 | 1.0 | 2.0 | 0.00 | 0.00 | 0.00 | 34 | 1027.7 |
| 20260905173004 | 90 | 280 | 2.0 | 3.0 | 0.00 | 0.00 | 0.00 | 33 | 1027.9 |
| 20260905172003 | 91 | 343 | 2.0 | 5.0 | 0.00 | 0.00 | 0.00 | 26 | 1027.8 |
| 20260905171505 | 91 | 272 | 3.0 | 5.0 | 0.00 | 0.00 | 0.00 | 28 | 1027.5 |
| 20260905171003 | 92 | 45 | 2.0 | 6.0 | 0.00 | 0.00 | 0.00 | 26 | 1027.5 |
| 20260905170505 | 93 | 313 | 1.0 | 3.0 | 0.00 | 0.00 | 0.00 | 28 | 1027.4 |
| 20260905170004 | 93 | 315 | 2.0 | 3.0 | 0.00 | 0.00 | 0.00 | 28 | 1027.4 |
| 20260905165503 | 93 | 35 | 1.0 | 3.0 | 0.00 | 0.00 | 0.00 | 27 | 1027.3 |
| 20260905165004 | 93 | 36 | 1.0 | 3.0 | 0.00 | 0.00 | 0.00 | 25 | 1027.4 |
| 20260905164504 | 92 | 348 | 1.0 | 3.0 | 0.00 | 0.00 | 0.00 | 25 | 1027.2 |
| 20260905164003 | 93 | 31 | 3.0 | 7.0 | 0.00 | 0.00 | 0.00 | 24 | 1027.1 |
| 20260905163504 | 93 | 46 | 2.0 | 6.0 | 0.00 | 0.00 | 0.00 | 24 | 1026.9 |
| 20260905163004 | 93 | 25 | 1.0 | 6.0 | 0.00 | 0.00 | 0.00 | 23 | 1026.9 |
| 20260905162504 | 94 | 8 | 1.0 | 6.0 | 0.00 | 0.00 | 0.00 | 22 | 1027.0 |
| 20260905162003 | 94 | 47 | 3.0 | 7.0 | 0.00 | 0.00 | 0.00 | 22 | 1026.9 |
| 20260905161503 | 94 | 44 | 4.0 | 8.0 | 0.00 | 0.00 | 0.00 | 22 | 1026.8 |
| 20260905161003 | 94 | 39 | 2.0 | 7.0 | 0.00 | 0.00 | 0.00 | 21 | 1026.9 |
| 20260905160504 | 95 | 71 | 3.0 | 7.0 | 0.00 | 0.00 | 0.00 | 21 | 1026.7 |
| 20260905160004 | 95 | 25 | 1.0 | 5.0 | 0.00 | 0.00 | 0.00 | 23 | 1026.7 |
| 20260905155504 | 95 | 2 | 2.0 | 6.0 | 0.00 | 0.00 | 0.00 | 22 | 1026.9 |
| 20260905155004 | 95 | 27 | 3.0 | 12.0 | 0.00 | 0.00 | 0.00 | 20 | 1026.8 |
| 20260905154504 | 96 | 62 | 5.0 | 9.0 | 0.00 | 0.00 | 0.00 | 19 | 1026.8 |
| 20260905154004 | 96 | 336 | 1.0 | 6.0 | 0.00 | 0.00 | 0.00 | 22 | 1026.6 |
| 20260905153504 | 98 | 50 | 2.0 | 3.0 | 0.00 | 0.00 | 0.00 | 21 | 1026.4 |
| 20260905153004 | 97 | 29 | 1.0 | 5.0 | 0.00 | 0.00 | 0.00 | 20 | 1026.5 |
| 20260905152503 | 97 | 48 | 2.0 | 6.0 | 0.00 | 0.00 | 0.00 | 20 | 1026.4 |
| 20260905152004 | 97 | 75 | 2.0 | 8.0 | 0.00 | 0.00 | 0.00 | 20 | 1026.3 |
| 20260905151503 | 98 | 39 | 2.0 | 8.0 | 0.00 | 0.00 | 0.00 | 19 | 1026.4 |
| 20260905151004 | 97 | 62 | 2.0 | 7.0 | 0.00 | 0.00 | 0.00 | 21 | 1026.2 |
| 20260905150504 | 99 | 322 | 2.0 | 5.0 | 0.00 | 0.00 | 0.00 | 21 | 1026.4 |
| 20260905150003 | 99 | 266 | 2.0 | 3.0 | 0.00 | 0.00 | 0.00 | 23 | 1026.4 |
| 20260905145504 | 99 | 225 | 2.0 | 5.0 | 0.00 | 0.00 | 0.00 | 24 | 1026.5 |
| 20260905145004 | 98 | 240 | 2.0 | 3.0 | 0.00 | 0.00 | 0.00 | 24 | 1026.6 |
| 20260905144504 | 98 | 201 | 1.0 | 5.0 | 0.00 | 0.00 | 0.00 | 24 | 1026.6 |
| 20260905143504 | 97 | 196 | 3.0 | 7.0 | 0.00 | 0.00 | 0.00 | 25 | 1026.7 |
| 20260905142504 | 98 | 220 | 3.0 | 6.0 | 0.00 | 0.00 | 0.00 | 24 | 1026.9 |
| 20260905141004 | 97 | 203 | 2.0 | 7.0 | 0.00 | 0.00 | 0.00 | 25 | 1026.9 |
| 20260905140504 | 98 | 219 | 3.0 | 7.0 | 0.00 | 0.00 | 0.00 | 25 | 1027.0 |
| 20260905140005 | 98 | 57 | 3.0 | 6.0 | 0.00 | 0.00 | 0.00 | 25 | 1026.9 |
| 20260905135503 | 97 | 251 | 2.0 | 6.0 | 0.00 | 0.00 | 0.00 | 25 | 1027.0 |
| 20260905134503 | 97 | 275 | 1.0 | 3.0 | 0.00 | 0.00 | 0.00 | 24 | 1027.0 |
| 20260905134004 | 96 | 228 | 3.0 | 6.0 | 0.00 | 0.00 | 0.00 | 24 | 1027.4 |
| 20260905133504 | 96 | 35 | 3.0 | 7.0 | 0.00 | 0.00 | 0.00 | 24 | 1027.3 |
| 20260905133004 | 97 | 250 | 2.0 | 5.0 | 0.00 | 0.00 | 0.00 | 25 | 1027.3 |
| 20260905132504 | 97 | 244 | 5.0 | 8.0 | 0.00 | 0.00 | 0.00 | 25 | 1027.3 |
| 20260905132004 | 97 | 241 | 1.0 | 6.0 | 0.00 | 0.00 | 0.00 | 24 | 1027.4 |
| 20260905131504 | 96 | 41 | 3.0 | 7.0 | 0.00 | 0.00 | 0.00 | 24 | 1027.5 |
| 20260905131004 | 97 | 228 | 3.0 | 7.0 | 0.00 | 0.00 | 0.00 | 25 | 1027.4 |
| 20260905130504 | 96 | 207 | 2.0 | 9.0 | 0.00 | 0.00 | 0.00 | 24 | 1027.5 |
| 20260905130004 | 96 | 249 | 2.0 | 7.0 | 0.00 | 0.00 | 0.00 | 24 | 1027.6 |
| 20260905125503 | 96 | 233 | 3.0 | 9.0 | 0.00 | 0.00 | 0.00 | 24 | 1027.6 |
| 20260905125003 | 96 | 226 | 3.0 | 6.0 | 0.00 | 0.00 | 0.00 | 23 | 1027.5 |
| 20260905124504 | 96 | 274 | 2.0 | 9.0 | 0.00 | 0.00 | 0.00 | 23 | 1027.6 |
| 20260905124005 | 95 | 57 | 4.0 | 9.0 | 0.00 | 0.00 | 0.00 | 24 | 1027.6 |
| 20260905122504 | 96 | 90 | 1.0 | 6.0 | 0.00 | 0.00 | 0.00 | 24 | 1027.5 |
| 20260905122004 | 96 | 40 | 3.0 | 7.0 | 0.00 | 0.00 | 0.00 | 24 | 1027.6 |
| 20260905121504 | 96 | 220 | 2.0 | 8.0 | 0.00 | 0.00 | 0.00 | 24 | 1027.7 |
| 20260905121005 | 96 | 224 | 2.0 | 7.0 | 0.00 | 0.00 | 0.00 | 24 | 1027.6 |